Location: Newark
(50.6583°N, 14.0417°E)
Time: 09:38:16
(UTC+00:00)

ISS - Visible Passes

Search period start: 28 January 2020 00:00
Search period end: 07 February 2020 00:00
Orbit: 416 x 423 km, 51.6° (Epoch: 28 January)

Date Brightness Start Highest point End Pass type
(mag) Time Alt. Az. Time Alt. Az. Time Alt. Az.
28 Jan -3.8 17:29:20 10° W 17:32:43 77° N 17:33:40 44° ENE visible
28 Jan -0.4 19:06:14 10° WNW 19:06:37 13° WNW 19:06:37 13° WNW visible
29 Jan -3.7 16:41:45 10° WSW 16:45:08 87° NNW 16:48:03 13° ENE visible
29 Jan -2.5 18:18:39 10° W 18:21:00 41° WNW 18:21:00 41° WNW visible
30 Jan -3.8 17:31:03 10° W 17:34:27 73° N 17:35:24 43° ENE visible
30 Jan -0.4 19:07:54 10° WNW 19:08:22 13° W 19:08:22 13° W visible
31 Jan -3.7 16:43:25 10° W 16:46:49 73° N 16:49:48 13° E visible
31 Jan -2.6 18:20:18 10° WNW 18:22:46 44° W 18:22:46 44° W visible
01 Feb -3.8 17:32:42 10° WNW 17:36:06 89° N 17:37:13 40° ESE visible
01 Feb -0.4 19:09:40 10° W 19:10:10 13° W 19:10:10 13° W visible
02 Feb -3.7 16:45:05 10° W 16:48:28 78° N 16:51:42 11° E visible
02 Feb -2.5 18:21:57 10° W 18:24:40 39° SW 18:24:40 39° SW visible
03 Feb -3.3 17:34:17 10° WNW 17:37:38 58° SSW 17:39:14 27° SE visible
03 Feb -0.4 19:11:54 10° WSW 19:12:13 11° WSW 19:12:13 11° WSW visible
04 Feb -3.6 16:46:39 10° WNW 16:50:02 75° SSW 16:53:25 10° ESE visible
04 Feb -1.7 18:23:49 10° W 18:26:29 22° SW 18:26:53 21° SSW visible
05 Feb -2.0 17:35:57 10° W 17:38:59 30° SSW 17:41:41 12° SSE visible
06 Feb -2.5 16:48:12 10° W 16:51:26 42° SSW 16:54:40 10° SE visible
